FW3090 Weather Reports


Display with metric or nautical units.
time (UTC)temp
F
wind
direction
speed
MPH
gust
MPH
rain 1hr
in
rain 24hr
in
rain mn
in
humidity
%
barometer
mb
20260902034534 72 60 0.0 0.0 0.00 0.00 0.00 83 1013.1
20260902034027 72 60 0.0 0.0 0.00 0.00 0.00 83 1012.9
20260902033523 72 60 0.0 0.0 0.00 0.00 0.00 83 1013.0
20260902033015 72 60 0.0 0.0 0.00 0.00 0.00 83 1013.1
20260902032510 73 60 0.0 0.0 0.00 0.00 0.00 83 1012.9
20260902032004 73 60 0.0 0.0 0.00 0.00 0.00 83 1012.9
20260902031457 73 60 0.0 0.0 0.00 0.00 0.00 83 1012.7
20260902031213 73 60 0.0 0.0 0.00 0.00 0.00 83 1012.7
20260902030711 73 164 0.0 0.0 0.00 0.00 0.00 83 1012.9
20260902025940 73 164 0.0 0.0 0.00 0.00 0.00 83 1012.9
20260902025433 73 164 0.0 0.0 0.00 0.00 0.00 83 1012.9
20260902024928 74 164 0.0 0.0 0.00 0.00 0.00 83 1012.9
20260902024422 74 164 0.0 0.0 0.00 0.00 0.00 83 1013.0
20260902024134 74 164 0.0 0.0 0.00 0.00 0.00 83 1013.0
20260902023411 74 164 0.0 0.0 0.00 0.00 0.00 83 1013.1
20260902022904 74 164 0.0 0.0 0.00 0.00 0.00 82 1013.0
20260902022358 74 164 0.0 0.0 0.00 0.00 0.00 82 1013.0
20260902021852 74 77 0.0 0.0 0.00 0.00 0.00 82 1012.9
20260902021346 74 77 0.0 0.0 0.00 0.00 0.00 82 1012.9
20260902020841 74 66 0.0 0.0 0.00 0.00 0.00 81 1013.0
20260902020340 74 66 0.0 0.0 0.00 0.00 0.00 81 1013.1
20260902015838 75 66 0.0 0.0 0.00 0.00 0.00 81 1013.0
20260902015337 75 66 0.0 0.0 0.00 0.00 0.00 81 1013.1
20260902015317 75 66 0.0 0.0 0.00 0.00 0.00 80 1013.1
20260902014334 75 66 0.0 0.0 0.00 0.00 0.00 81 1012.8
20260902013834 75 160 0.0 0.0 0.00 0.00 0.00 81 1013.0
20260902013334 76 161 0.0 0.0 0.00 0.00 0.00 80 1012.9
20260902012834 76 161 0.0 0.0 0.00 0.00 0.00 80 1012.9
20260902012332 76 161 0.0 0.0 0.00 0.00 0.00 80 1012.9
20260902012050 76 161 0.0 0.0 0.00 0.00 0.00 80 1012.8
20260902011328 76 161 0.0 0.0 0.00 0.00 0.00 81 1012.7
20260902011053 77 161 0.0 0.0 0.00 0.00 0.00 81 1012.6
20260902010323 77 161 0.0 0.0 0.00 0.00 0.00 81 1012.5
20260902005821 77 161 0.0 0.0 0.00 0.00 0.00 81 1012.4
20260902005320 77 161 0.0 0.0 0.00 0.00 0.00 81 1012.5
20260902004818 77 80 0.0 0.0 0.00 0.00 0.00 81 1012.4
20260902004806 78 80 0.0 0.0 0.00 0.00 0.00 81 1012.4
20260902003814 78 80 0.0 0.0 0.00 0.00 0.00 81 1012.5
20260902003313 78 80 0.0 0.0 0.00 0.00 0.00 80 1012.5
20260902003038 78 80 0.0 0.0 0.00 0.00 0.00 80 1012.4
20260902002530 78 80 0.0 0.0 0.00 0.00 0.00 81 1012.5
20260902001806 78 80 0.0 0.0 0.00 0.00 0.00 81 1012.5
20260902001259 79 80 0.0 0.0 0.00 0.00 0.00 81 1012.4
20260902000755 79 80 0.0 0.0 0.00 0.00 0.00 81 1012.4
20260902000249 79 80 0.0 0.0 0.00 0.00 0.00 81 1012.4
20260901235741 79 80 0.0 0.0 0.00 0.00 0.00 81 1012.3
20260901235235 79 80 0.0 0.0 0.00 0.00 0.00 80 1012.4
20260901234730 80 80 0.0 0.0 0.00 0.00 0.00 80 1012.4
20260901234446 80 80 0.0 0.0 0.00 0.00 0.00 79 1012.4
20260901233718 80 80 0.0 0.0 0.00 0.00 0.00 79 1012.2
20260901233212 80 80 0.0 0.0 0.00 0.00 0.00 79 1012.1
20260901232712 80 80 1.0 5.0 0.00 0.00 0.00 79 1012.0
20260901232210 80 80 1.0 5.0 0.00 0.00 0.00 78 1011.9
20260901231708 81 82 0.0 4.0 0.00 0.00 0.00 78 1012.0
20260901231206 81 192 0.0 0.0 0.00 0.00 0.00 79 1012.2
20260901230921 82 193 0.0 0.0 0.00 0.00 0.00 78 1012.5
20260901230201 82 250 0.0 0.0 0.00 0.00 0.00 78 1012.6
20260901225700 82 250 0.0 0.0 0.00 0.00 0.00 77 1012.7
20260901225158 82 250 0.0 0.0 0.00 0.00 0.00 77 1013.0
20260901224915 82 250 0.0 0.0 0.00 0.00 0.00 77 1013.2
20260901224156 82 250 0.0 0.0 0.00 0.00 0.00 76 1013.1
20260901223656 82 250 0.0 0.0 0.00 0.00 0.00 74 1013.0
20260901223155 82 250 0.0 0.0 0.00 0.00 0.00 73 1012.9
20260901222656 83 32 0.0 0.0 0.00 0.00 0.00 71 1012.8
20260901222156 83 32 0.0 0.0 0.00 0.00 0.00 69 1012.4
20260901221656 83 32 0.0 0.0 0.00 0.00 0.00 69 1012.1
20260901221410 83 32 0.0 0.0 0.00 0.00 0.00 71 1012.0
20260901220651 84 32 0.0 0.0 0.00 0.00 0.00 70 1012.2
20260901220151 84 32 0.0 0.0 0.00 0.00 0.00 69 1012.2
20260901215912 84 32 0.0 0.0 0.00 0.00 0.00 69 1012.4
20260901215152 84 32 0.0 0.0 0.00 0.00 0.00 68 1012.3
20260901214912 85 32 0.0 0.0 0.00 0.00 0.00 67 1012.2
20260901214153 85 32 0.0 0.0 0.00 0.00 0.00 66 1012.2
20260901213652 85 32 0.0 0.0 0.00 0.00 0.00 65 1012.2
20260901213152 85 32 0.0 0.0 0.00 0.00 0.00 65 1012.0
20260901212651 85 32 0.0 0.0 0.00 0.00 0.00 66 1011.6
20260901212416 85 32 0.0 0.0 0.00 0.00 0.00 65 1011.8
20260901211916 85 32 0.0 0.0 0.00 0.00 0.00 62 1012.2
20260901211152 85 32 0.0 0.0 0.00 0.00 0.00 61 1012.2
20260901210651 85 32 0.0 0.0 0.00 0.00 0.00 63 1012.4
20260901210413 85 32 0.0 0.0 0.00 0.00 0.00 60 1012.6
20260901205917 85 32 0.0 0.0 0.00 0.00 0.00 58 1012.7
20260901205151 86 32 0.0 0.0 0.00 0.00 0.00 53 1012.7
20260901204651 87 32 0.0 0.0 0.00 0.00 0.00 48 1012.8
20260901204145 87 12 0.0 0.0 0.00 0.00 0.00 53 1012.9
20260901203907 86 273 0.0 0.0 0.00 0.00 0.00 64 1012.8
20260901203143 85 295 0.0 0.0 0.00 0.00 0.00 66 1012.8
20260901202643 84 296 0.0 0.0 0.00 0.00 0.00 65 1012.9
20260901202144 84 296 0.0 0.0 0.00 0.00 0.00 65 1012.8
20260901201641 84 296 0.0 0.0 0.00 0.00 0.00 69 1012.9
20260901201146 84 296 0.0 0.0 0.00 0.00 0.00 64 1012.9
20260901200640 84 296 0.0 0.0 0.00 0.00 0.00 64 1012.9
20260901200359 84 296 0.0 0.0 0.00 0.00 0.00 70 1012.9
20260901195638 84 296 0.0 0.0 0.00 0.00 0.00 68 1013.1
20260901195136 84 296 0.0 0.0 0.00 0.00 0.00 66 1013.3
20260901194904 84 296 0.0 0.0 0.00 0.00 0.00 64 1013.2
20260901194131 84 296 0.0 0.0 0.00 0.00 0.00 65 1013.1
20260901193629 84 296 0.0 0.0 0.00 0.00 0.00 65 1013.1
20260901193127 84 296 0.0 0.0 0.00 0.00 0.00 61 1013.3
20260901192625 85 296 0.0 0.0 0.00 0.00 0.00 62 1013.2
20260901192123 85 296 0.0 0.0 0.00 0.00 0.00 60 1013.4
20260901191621 85 296 0.0 0.0 0.00 0.00 0.00 64 1013.4
20260901191119 86 298 0.0 0.0 0.00 0.00 0.00 62 1013.4
20260901190617 87 304 0.0 0.0 0.00 0.00 0.00 57 1013.4
20260901190335 88 225 0.0 0.0 0.00 0.00 0.00 62 1013.4
20260901185613 87 235 0.0 0.0 0.00 0.00 0.00 63 1013.5
20260901185331 86 332 0.0 0.0 0.00 0.00 0.00 62 1013.5
20260901184607 87 333 0.0 0.0 0.00 0.00 0.00 61 1013.6
20260901184101 86 330 0.0 0.0 0.00 0.00 0.00 66 1013.6
20260901183554 86 270 0.0 0.0 0.00 0.00 0.00 68 1013.7
20260901183049 85 278 0.0 0.0 0.00 0.00 0.00 67 1013.6
20260901182801 86 238 0.0 0.0 0.00 0.00 0.00 63 1013.6
20260901182522 86 231 0.0 0.0 0.00 0.00 0.00 63 1013.6
20260901181531 87 291 0.0 0.0 0.00 0.00 0.00 66 1013.5
20260901181024 86 293 0.0 0.0 0.00 0.00 0.00 69 1013.6
20260901180519 87 297 0.0 0.0 0.00 0.00 0.00 66 1013.6
20260901180013 89 296 0.0 3.0 0.00 0.00 0.00 64 1013.7
20260901175509 91 296 1.0 5.0 0.00 0.00 0.00 61 1013.7
20260901175001 92 5 1.0 5.0 0.00 0.00 0.00 63 1013.7
20260901174455 91 342 1.0 4.0 0.00 0.00 0.00 63 1013.7
20260901173948 91 281 1.0 4.0 0.00 0.00 0.00 62 1013.7
20260901173443 90 74 1.0 4.0 0.00 0.00 0.00 62 1013.7
20260901172937 90 248 1.0 4.0 0.00 0.00 0.00 61 1013.9
20260901172647 90 177 2.0 6.0 0.00 0.00 0.00 63 1014.0
20260901171924 89 217 1.0 6.0 0.00 0.00 0.00 63 1014.0
20260901171420 89 165 1.0 4.0 0.00 0.00 0.00 66 1014.0
20260901170912 88 235 3.0 6.0 0.00 0.00 0.00 69 1014.1
20260901170407 88 221 3.0 6.0 0.00 0.00 0.00 70 1014.1
20260901165901 87 226 2.0 6.0 0.00 0.00 0.00 70 1014.0
20260901165354 87 265 1.0 4.0 0.00 0.00 0.00 72 1014.0
20260901164849 86 237 2.0 4.0 0.00 0.00 0.00 72 1013.9
20260901164342 86 242 2.0 4.0 0.00 0.00 0.00 73 1014.0
20260901163837 85 231 1.0 4.0 0.00 0.00 0.00 73 1013.9
20260901163331 84 251 0.0 4.0 0.00 0.00 0.00 75 1013.9
20260901163047 84 234 0.0 0.0 0.00 0.00 0.00 77 1013.9
20260901162319 83 205 0.0 0.0 0.00 0.00 0.00 76 1013.9
20260901161812 82 301 0.0 0.0 0.00 0.00 0.00 80 1013.9
20260901161306 81 304 0.0 0.0 0.00 0.00 0.00 80 1014.0
20260901160801 81 295 0.0 0.0 0.00 0.00 0.00 79 1014.0
20260901160254 81 315 0.0 0.0 0.00 0.00 0.00 78 1013.9
20260901155749 80 218 0.0 0.0 0.00 0.00 0.00 78 1014.1
20260901155243 80 218 0.0 0.0 0.00 0.00 0.00 77 1013.9
20260901155002 79 187 0.0 2.0 0.00 0.00 0.00 82 1013.9
20260901154230 78 180 1.0 3.0 0.00 0.00 0.00 81 1013.9
20260901153951 77 180 0.0 3.0 0.00 0.00 0.00 85 1014.0
20260901153218 76 192 0.0 0.0 0.00 0.00 0.00 88 1014.0
20260901152713 76 192 0.0 0.0 0.00 0.00 0.00 89 1014.1
20260901152207 75 192 0.0 0.0 0.00 0.00 0.00 90 1014.1
20260901151702 75 192 0.0 0.0 0.00 0.00 0.00 90 1014.0
20260901151155 75 192 0.0 0.0 0.00 0.00 0.00 91 1014.1
20260901150911 74 187 0.0 0.0 0.00 0.00 0.00 91 1014.1
20260901150151 74 187 0.0 0.0 0.00 0.00 0.00 91 1014.1
20260901145651 73 257 0.0 0.0 0.00 0.00 0.00 91 1014.2
20260901145151 74 257 0.0 0.0 0.00 0.00 0.00 91 1014.3
20260901144651 73 257 0.0 0.0 0.00 0.00 0.00 91 1014.2
20260901144411 73 257 0.0 0.0 0.00 0.00 0.00 91 1014.2
20260901143647 73 257 0.0 0.0 0.00 0.00 0.00 91 1014.3
20260901143144 73 257 0.0 0.0 0.00 0.00 0.00 91 1014.3
20260901142644 73 257 0.0 0.0 0.00 0.00 0.00 91 1014.2
20260901142144 73 257 0.0 0.0 0.00 0.00 0.00 91 1014.3
20260901141644 73 257 0.0 0.0 0.00 0.00 0.00 91 1014.2
20260901141144 73 257 0.0 0.0 0.00 0.00 0.00 91 1014.3
20260901140642 73 257 0.0 0.0 0.00 0.00 0.00 91 1014.3
20260901140140 73 257 0.0 0.0 0.00 0.00 0.00 91 1014.1
20260901135640 73 257 0.0 0.0 0.00 0.00 0.00 91 1014.1
20260901135140 73 257 0.0 0.0 0.00 0.00 0.00 91 1014.2
20260901134638 73 257 0.0 0.0 0.00 0.00 0.00 91 1014.1
20260901134138 73 257 0.0 0.0 0.00 0.00 0.00 91 1014.3
20260901133851 73 257 0.0 0.0 0.00 0.00 0.00 91 1014.2
20260901133135 73 257 0.0 0.0 0.00 0.00 0.00 91 1014.1
20260901132634 72 257 0.0 0.0 0.00 0.00 0.00 91 1014.2
20260901132134 72 257 0.0 0.0 0.00 0.00 0.00 91 1014.1
20260901131634 72 257 0.0 0.0 0.00 0.00 0.00 91 1014.1
20260901131134 72 257 0.0 0.0 0.00 0.00 0.00 91 1014.0
20260901130634 72 257 0.0 0.0 0.00 0.00 0.00 91 1014.1
20260901130135 72 257 0.0 0.0 0.00 0.00 0.00 91 1014.1
20260901125855 72 257 0.0 0.0 0.00 0.00 0.00 91 1014.2
20260901125131 72 257 0.0 0.0 0.00 0.00 0.00 91 1014.1
20260901124631 72 257 0.0 0.0 0.00 0.00 0.00 91 1014.2
20260901124130 72 257 0.0 0.0 0.00 0.00 0.00 91 1014.1
20260901123630 72 257 0.0 0.0 0.00 0.00 0.00 91 1014.1
20260901123349 72 257 0.0 0.0 0.00 0.00 0.00 90 1014.1
20260901122630 72 257 0.0 0.0 0.00 0.00 0.00 90 1014.0
20260901122610 72 257 0.0 0.0 0.00 0.00 0.00 90 1014.1
20260901121630 72 257 0.0 0.0 0.00 0.00 0.00 90 1014.0
20260901121130 72 257 0.0 0.0 0.00 0.00 0.00 90 1013.9
20260901120626 72 257 0.0 0.0 0.00 0.00 0.00 90 1013.8
20260901120126 72 257 0.0 0.0 0.00 0.00 0.00 90 1013.7
20260901115623 72 257 0.0 0.0 0.00 0.00 0.00 90 1013.7
20260901115122 72 257 0.0 0.0 0.00 0.00 0.00 90 1013.6
20260901114620 72 257 0.0 0.0 0.00 0.00 0.00 90 1013.6
20260901114340 72 257 0.0 0.0 0.00 0.00 0.00 90 1013.6
20260901113618 72 257 0.0 0.0 0.00 0.00 0.00 90 1013.6
20260901113118 72 257 0.0 0.0 0.00 0.00 0.00 90 1013.6
20260901112616 72 257 0.0 0.0 0.00 0.00 0.00 90 1013.5
20260901112115 72 257 0.0 0.0 0.00 0.00 0.00 90 1013.5
20260901111614 72 257 0.0 0.0 0.00 0.00 0.00 90 1013.4
20260901111115 73 257 0.0 0.0 0.00 0.00 0.00 90 1013.4
20260901110613 73 257 0.0 0.0 0.00 0.00 0.00 90 1013.5
20260901110114 73 257 0.0 0.0 0.00 0.00 0.00 90 1013.3
20260901105612 73 257 0.0 0.0 0.00 0.00 0.00 91 1013.4
20260901105110 73 257 0.0 0.0 0.00 0.00 0.00 91 1013.4
20260901104610 73 257 0.0 0.0 0.00 0.00 0.00 91 1013.4
20260901104110 73 257 0.0 0.0 0.00 0.00 0.00 91 1013.4
20260901103608 73 257 0.0 0.0 0.00 0.00 0.00 90 1013.2
20260901103102 73 257 0.0 0.0 0.00 0.00 0.00 90 1013.2
20260901102555 72 257 0.0 0.0 0.00 0.00 0.00 90 1013.0
20260901102050 72 257 0.0 0.0 0.00 0.00 0.00 90 1013.1
20260901101544 72 257 0.0 0.0 0.00 0.00 0.00 90 1012.9
20260901101038 72 257 0.0 0.0 0.00 0.00 0.00 90 1013.0
20260901100753 72 257 0.0 0.0 0.00 0.00 0.00 90 1012.9
20260901100242 72 257 0.0 0.0 0.00 0.00 0.00 90 1012.8
20260901095520 72 257 0.0 0.0 0.00 0.00 0.00 89 1012.9
20260901095013 72 257 0.0 0.0 0.00 0.00 0.00 89 1012.8
20260901094508 72 257 0.0 0.0 0.00 0.00 0.00 89 1012.9
20260901094229 72 257 0.0 0.0 0.00 0.00 0.00 89 1012.9
20260901093455 72 257 0.0 0.0 0.00 0.00 0.00 89 1013.0
20260901092950 71 257 0.0 0.0 0.00 0.00 0.00 89 1012.9
20260901092444 72 257 0.0 0.0 0.00 0.00 0.00 89 1013.1
20260901092415 71 257 0.0 0.0 0.00 0.00 0.00 89 1013.1
20260901091432 71 257 0.0 0.0 0.00 0.00 0.00 89 1013.2
20260901090926 71 257 0.0 0.0 0.00 0.00 0.00 89 1013.2
20260901090638 71 257 0.0 0.0 0.00 0.00 0.00 89 1013.0
20260901085913 71 257 0.0 0.0 0.00 0.00 0.00 89 1012.9
20260901085408 71 257 0.0 0.0 0.00 0.00 0.00 89 1013.0
20260901085122 71 257 0.0 0.0 0.00 0.00 0.00 88 1012.8
20260901084356 72 257 0.0 0.0 0.00 0.00 0.00 88 1012.6
20260901083849 72 257 0.0 0.0 0.00 0.00 0.00 88 1012.7
20260901083608 72 257 0.0 0.0 0.00 0.00 0.00 88 1012.8
20260901082838 72 257 0.0 0.0 0.00 0.00 0.00 88 1012.6
20260901082331 72 257 0.0 0.0 0.00 0.00 0.00 88 1012.6
20260901081826 72 257 0.0 0.0 0.00 0.00 0.00 88 1012.6
20260901081319 72 257 0.0 0.0 0.00 0.00 0.00 88 1012.7
20260901080814 72 257 0.0 0.0 0.00 0.00 0.00 88 1012.7
20260901080307 72 257 0.0 0.0 0.00 0.00 0.00 88 1012.6
20260901075801 72 257 0.0 0.0 0.00 0.00 0.00 88 1012.9
20260901075256 72 257 0.0 0.0 0.00 0.00 0.00 88 1012.9
20260901074749 72 257 0.0 0.0 0.00 0.00 0.00 88 1012.9
20260901074244 72 257 0.0 0.0 0.00 0.00 0.00 88 1012.8
20260901073738 72 257 0.0 0.0 0.00 0.00 0.00 88 1012.7
20260901073231 72 257 0.0 0.0 0.00 0.00 0.00 88 1012.8
20260901072725 72 257 0.0 0.0 0.00 0.00 0.00 88 1012.9
20260901072220 72 257 0.0 0.0 0.00 0.00 0.00 88 1012.8
20260901071713 72 257 0.0 0.0 0.00 0.00 0.00 88 1012.7
20260901071208 72 257 0.0 0.0 0.00 0.00 0.00 88 1012.7
20260901070927 72 257 0.0 0.0 0.00 0.00 0.00 87 1012.8
20260901070155 72 257 0.0 0.0 0.00 0.00 0.00 87 1012.7
20260901065650 72 257 0.0 0.0 0.00 0.00 0.00 87 1012.7
20260901065145 72 257 0.0 0.0 0.00 0.00 0.00 87 1012.8
20260901064637 72 257 0.0 0.0 0.00 0.00 0.00 87 1012.7
20260901064354 73 257 0.0 0.0 0.00 0.00 0.00 87 1012.8
20260901063625 73 257 0.0 0.0 0.00 0.00 0.00 87 1012.8
20260901063119 73 257 0.0 0.0 0.00 0.00 0.00 87 1012.8
20260901062614 73 257 0.0 0.0 0.00 0.00 0.00 87 1012.8
20260901062107 73 257 0.0 0.0 0.00 0.00 0.00 87 1012.9
20260901061601 73 257 0.0 0.0 0.00 0.00 0.00 87 1012.9
20260901061056 73 257 0.0 0.0 0.00 0.00 0.00 86 1012.9
20260901060551 73 257 0.0 0.0 0.00 0.00 0.00 86 1013.0
20260901060314 73 257 0.0 0.0 0.00 0.00 0.00 86 1012.9
20260901055543 73 257 0.0 0.0 0.00 0.00 0.00 86 1012.9
20260901055041 73 257 0.0 0.0 0.00 0.00 0.00 86 1012.8
20260901054542 73 257 0.0 0.0 0.00 0.00 0.00 86 1012.7
20260901054041 74 257 0.0 0.0 0.00 0.00 0.00 86 1012.6
20260901053541 74 257 0.0 0.0 0.00 0.00 0.00 86 1012.6
20260901053038 74 257 0.0 0.0 0.00 0.00 0.00 86 1012.5
20260901052800 74 257 0.0 0.0 0.00 0.00 0.00 86 1012.5
20260901052033 74 257 0.0 0.0 0.00 0.00 0.00 86 1012.4
20260901051532 74 257 0.0 0.0 0.00 0.00 0.00 86 1012.5
20260901051031 74 257 0.0 0.0 0.00 0.00 0.00 86 1012.4
20260901050532 74 257 0.0 0.0 0.00 0.00 0.00 86 1012.5
20260901050032 74 257 0.0 0.0 0.00 0.00 0.00 86 1012.5
20260901045748 75 257 0.0 0.0 0.00 0.00 0.00 86 1012.4
20260901045030 75 257 0.0 0.0 0.00 0.00 0.00 86 1012.5
20260901044529 75 257 0.0 0.0 0.00 0.00 0.00 86 1012.4
20260901044027 75 257 0.0 0.0 0.00 0.00 0.00 86 1012.5
20260901043528 75 257 0.0 0.0 0.00 0.00 0.00 86 1012.4
20260901043022 75 257 0.0 0.0 0.00 0.00 0.00 86 1012.3
20260901042516 75 257 0.0 0.0 0.00 0.00 0.00 86 1012.4
20260901042009 75 257 0.0 0.0 0.00 0.00 0.00 85 1012.4
20260901041730 75 257 0.0 0.0 0.00 0.00 0.00 85 1012.2
20260901040957 75 257 0.0 0.0 0.00 0.00 0.00 85 1012.1
20260901040453 76 257 0.0 0.0 0.00 0.00 0.00 85 1012.3
20260901035946 76 257 0.0 0.0 0.00 0.00 0.00 85 1012.2
20260901035439 76 257 0.0 0.0 0.00 0.00 0.00 85 1012.2
20260901034935 76 257 0.0 0.0 0.00 0.00 0.00 85 1012.2